Hourly Data Report for September 04, 2017

All times are specified in Local Standard Time (LST). Add 1 hour to adjust for Daylight Saving Time where and when it is observed.

PORT ALBERNI (AUT)
BRITISH COLUMBIA

49°18'59.700" N
124°55'36.600" W
76.20 m
1036B06
71475
WQC

Download Data

Hourly Data (September 2017)
Hourly Data Report for September 4, 2017
Temp Definition
°C
Dew Point Temp Definition
°C
Rel Hum Definition
%
Wind Dir Definition
10's deg

Wind Spd Definition
km/h
Visibility Definition
km
Stn Press Definition
kPa
Hmdx Definition


Wind Chill Definition


Weather Definition


TIME
00:00 15.2 12.6 84 30 8   100.96     LegendNANA
01:00 14.5 12.2 86 11 7   100.98     LegendNANA
02:00 13.8 12.3 91 32 3   100.97     LegendNANA
03:00 13.5 11.9 91 32 8   101.00     LegendNANA
04:00 12.9 11.8 94 32 3   100.99     LegendNANA
05:00 12.8 11.3 90 32 7   101.00     LegendNANA
06:00 12.3 11.5 95 30 7   101.01     LegendNANA
07:00 16.1 13.2 83 2 5   101.04     LegendNANA
08:00 20.6 13.9 66 4 2   101.04     LegendNANA
09:00 24.6 13.4 50 2 2   100.99 28   LegendNANA
10:00 27.1 11.4 37 8 2   100.93 29   LegendNANA
11:00 29.5 10.6 31 32 4   100.85 31   LegendNANA
12:00 32.2 11.5 28 35 3   100.77 34   LegendNANA
13:00 33.5 9.8 23 8 3   100.69 35   LegendNANA
14:00 35.0 9.2 21 8 4   100.60 36   LegendNANA
15:00 LegendMM LegendMM 21 12 4   100.52     LegendNANA
16:00 LegendMM LegendMM 19 16 5   100.45     LegendNANA
17:00 LegendMM LegendMM 16 22 2   100.37     LegendNANA
18:00 32.2 11.2 28 22 6   100.32 34   LegendNANA
19:00 25.9 12.9 44 21 4   100.34 29   LegendNANA
20:00 LegendMM LegendMM 61 33 2   100.36     LegendNANA
21:00 18.9 13.0 69 30 1   100.38     LegendNANA
22:00 18.2 13.1 73 30 3   100.38     LegendNANA
23:00 17.1 13.2 78 32 3   100.42     LegendNANA

Notes on Data Quality.

Legend

  • E = Estimated
  • M = Missing
  • NA = Not Available
  • ‡ = Partner data that is not subject to review by the National Climate Archives
Date modified: